Weather History for Holloman AFB, NM

Change the Weather History Date:

Wednesday, August 14, 2013

  Actual Average Record
Temperature  
Mean Temperature 81 °F -  
Max Temperature 94 °F 90 °F 100 °F (2010)
Min Temperature 68 °F 64 °F 59 °F (2003)
Cooling Degree Days 16    
Growing Degree Days 31 (Base 50)    
Moisture  
Dew Point 57 °F    
Average Humidity 47    
Maximum Humidity 73    
Minimum Humidity 26    
Precipitation  
Precipitation 0.00 in - - ()
Sea Level Pressure  
Sea Level Pressure 29.95 in    
Wind  
Wind Speed 6 mph (SW)    
Max Wind Speed 23 mph    
Max Gust Speed 30 mph    
Visibility 10 miles    
Events Thunderstorm    
Averages and records for this station are not official NWS values.
T = Trace of Precipitation, MM = Missing Value Source: NWS Daily Summary

Daily Weather History Graph

Daily Weather History Graph

Search for Another Location

Airport:

Trip Planner

Search our weather history database for the weather conditions in past years. The results will help you decide how hot, cold, wet, or windy it might be!

Date:

Astronomy

Aug. 14, 2013 Rise Set
Actual Time 6:27 AM MDT 7:50 PM MDT
Civil Twilight 6:01 AM MDT 8:16 PM MDT
Nautical Twilight 5:29 AM MDT 8:47 PM MDT
Astronomical Twilight 4:57 AM MDT 9:19 PM MDT
Moon 2:01 PM MDT (8/14) No Moon Set
Length of Visible Light 14h 15m
Length of Day
13h 23m
First Quarter, 53% of the Moon is Illuminated
Aug 14
First Quarter
Aug 20
Full
Aug 28
Last Quarter
Sep 5
New
Sep 12
First Quarter

Hourly Weather History & Observations

Time (MDT) Temp. Heat Index Dew Point Humidity Pressure Visibility Wind Dir Wind Speed Gust Speed Precip Events Conditions
12:58 AM 73.0 °F - 59.2 °F 62% 29.89 in 10.0 mi NW 4.6 mph - N/A   Clear
1:58 AM 71.2 °F - 59.5 °F 66% 29.88 in 10.0 mi NNE 3.5 mph - N/A   Partly Cloudy
2:55 AM 73.4 °F - 51.8 °F 47% 30.10 in 7.0 mi North 2.3 mph - N/A   Mostly Cloudy
3:55 AM 71.6 °F - 59.0 °F 64% 29.83 in 10.0 mi NNW 3.5 mph - N/A   Mostly Cloudy
4:55 AM 71.6 °F - 59.0 °F 64% 29.84 in 10.0 mi NW 3.5 mph - N/A   Scattered Clouds
5:55 AM 71.2 °F - 58.3 °F 64% 29.86 in 10.0 mi NNW 8.1 mph - N/A   Scattered Clouds
6:54 AM 68.0 °F - 59.0 °F 73% 30.13 in 10.0 mi Calm Calm - N/A   Clear
7:58 AM 72.9 °F - 59.2 °F 62% 29.94 in 10.0 mi Calm Calm - N/A   Clear
8:58 AM 78.1 °F - 59.9 °F 53% 29.95 in 10.0 mi WSW 3.5 mph - N/A   Clear
9:58 AM 84.2 °F 83.5 °F 57.7 °F 40% 29.95 in 10.0 mi West 5.8 mph - N/A   Clear
10:58 AM 86.4 °F 85.4 °F 57.7 °F 38% 29.94 in 10.0 mi South 2.3 mph - N/A   Clear
11:58 AM 88.5 °F 87.3 °F 57.6 °F 35% 29.93 in 10.0 mi SSW 8.1 mph - N/A   Clear
12:58 PM 90.3 °F 88.8 °F 57.0 °F 32% 29.90 in 10.0 mi Variable 5.8 mph - N/A   Partly Cloudy
1:58 PM 92.5 °F 91.3 °F 57.6 °F 31% 29.87 in 10.0 mi SSW 9.2 mph - N/A   Clear
2:58 PM 94.5 °F 92.3 °F 54.9 °F 26% 30.06 in 10.0 mi SSE 9.2 mph - N/A   Partly Cloudy
3:58 PM 92.8 °F 91.1 °F 56.1 °F 29% 30.04 in 10.0 mi South 15.0 mph - N/A   Clear
4:58 PM 92.8 °F 90.9 °F 54.9 °F 28% 30.04 in 10.0 mi SSW 12.7 mph - N/A   Clear
5:10 PM 93.2 °F 90.8 °F 53.6 °F 26% 30.04 in 10.0 mi SSE 12.7 mph - N/A   Clear
5:58 PM 91.2 °F 89.1 °F 54.3 °F 29% 30.03 in 10.0 mi South 9.2 mph - N/A   Partly Cloudy
6:58 PM 81.0 °F 80.5 °F 54.0 °F 39% 29.87 in 10.0 mi WSW 23.0 mph 26.5 mph N/A   Partly Cloudy
7:17 PM 78.8 °F - 55.4 °F 44% 30.06 in 10.0 mi West 15.0 mph - N/A   Light Drizzle
7:58 PM 77.0 °F - 58.6 °F 53% 29.91 in 10.0 mi NNE 10.4 mph 29.9 mph 0.00 in Thunderstorm Clear
9:58 PM 77.0 °F - 58.8 °F 53% 29.94 in 10.0 mi SSE 11.5 mph - N/A   Mostly Cloudy
10:58 PM 76.6 °F - 58.6 °F 54% 29.92 in 10.0 mi SSW 8.1 mph - N/A   Scattered Clouds
11:58 PM 72.3 °F - 57.4 °F 59% 29.93 in 10.0 mi SSW 17.3 mph - N/A   Clear